Location: Fernhill
(41.0167°S, 175.6333°E)
Time: 11:21:02
(UTC+00:00)

Lacrosse 5 rocket - Pass Details

Date: 08 November 2025
Orbit: 406 x 493 km, 57.0° (Epoch: 09 December)

Event Time Altitude Azimuth Distance (km) Brightness Sun altitude
Rises 09:18:49 0° 221° (SW) 2,602 6.4 -21.1°
Reaches altitude 10° 09:21:03 10° 215° (SW) 1,724 5.0 -21.4°
Maximum altitude 09:24:51 49° 139° (SE) 667 1.7 -21.9°
Enters shadow 09:25:02 48° 129° (SE) 671 1.6 -21.9°
